World > North America > United States > New York > West Delhi  

West Delhi, NY Hourly Weather Updates

Feedback E-mail the Weather

Quick Clicks

West Delhi, NY Weather Maps

°F °C°F °C
West Delhi Weather Map
UTC Time: 5/30/2024, 13:20
Your Time:

West Delhi, NY Regional Weather

Expires:202405301400;;138194
ASUS41 KALY 301310
RWRALY

NEW YORK STATE HOURLY WEATHER ROUNDUP
NATIONAL WEATHER SERVICE ALBANY NY
900 AM EDT THU MAY 30 2024

NOTE: "FAIR" INDICATES FEW OR NO CLOUDS BELOW 12,000 FEET WITH NO
SIGNIFICANT WEATHER AND/OR NO OBSTRUCTIONS TO VISIBILITY.


NYZ032-033-038>043-046>054-057>066-NYZ062>081-082-084-301400-
EAST

  
CITY           SKY/WX    TMP DP  RH WIND       PRES   REMARKS
ALBANY         PTSUNNY   57  45  64 N8        30.01R                  
GLENS FALLS    SUNNY     55  47  74 N7        30.01S                  
POUGHKEEPSIE   PTSUNNY   57  51  80 CALM      29.97S                  
NEWBURGH       MOSUNNY   57  52  82 N13       29.98S                  
MONTGOMERY     MOSUNNY   59  52  77 VRB5      29.98R                  
WHITE PLAINS   PTSUNNY   58  51  78 NW9       29.96R                  
ISLIP          PTSUNNY   60  53  77 N16G25    29.93R                  
NEW YORK CITY  PTSUNNY   60  50  69 N13       29.97R                  
CENTRAL PARK   PTSUNNY   59  32  36 VRB3      30.00S                  
$$


SKY/WX - Weather  TMP - Temperature  DP - Dew Point  RH - Humidity
WIND - Wind Direction/Speed PRES - Barometric Pressure VSB - Visibility
WCI - Wind Chill Index E13G22 Wind - East Wind 13 mph/Gusts of 22 mph

Trending Headlines

Trending Entertainment Headlines

West Delhi Radar Loop

Use the map search tool if you want to place a location marker on the radar map...

West Delhi Quick Facts

National Two Day Weather Forecast


E-mail the West Delhi Weather Forecast

Voice your opinion or tell us about page issues...